User: anonymous   Login
Location: Bu�n Treun
(12.1333°N, 108.3167°E)
Time: 13:44:31
(UTC+00:00)
Language:

Cosmos 1980 Rocket - Orbit

View from above orbital plane
View from above orbital plane
View from above satellite
View from above satellite

Ground track
Ground track

The orbit data is extracted from the following two-line orbital elements,

1 19650U 88102B   20274.47490822 -.00000256 +00000-0 -10592-3 0  9996
2 19650 071.0023 009.0697 0013438 163.6321 196.5238 14.15792240645743
Epoch (UTC): 30 September 2020 11:23:52
Eccentricity: 0.0013438
inclination: 71.0023°
perigee height: 830 km
apogee height: 849 km
right ascension of ascending node: 9.0697°
argument of perigee: 163.6321°
revolutions per day: 14.15792240
mean anomaly at epoch: 196.5238°
orbit number at epoch: 64574

The dashed part of the orbit path shows where the satellite is in the earth's shadow,  

DLR